Weather History for Toledo Metcalf, OH

Change the Weather History Date:

Monday, September 16, 2013

  Actual Average (KTOL) Record (KTOL)
Temperature  
Mean Temperature 58 °F 64 °F  
Max Temperature 64 °F 76 °F 97 °F (1939)
Min Temperature 52 °F 53 °F 35 °F (1966)
Degree Days  
Heating Degree Days 6 3  
Month to date heating degree days 30  
Since 1 July heating degree days 44  
Cooling Degree Days 0 2  
Month to date cooling degree days 61  
Year to date cooling degree days 763  
Growing Degree Days 8 (Base 50)    
Moisture  
Dew Point 51 °F    
Average Humidity 80    
Maximum Humidity 100    
Minimum Humidity 56    
Precipitation  
Precipitation 0.01 in 0.09 in 0.84 in (2005)
Month to date precipitation 1.51  
Year to date precipitation 24.83  
Snow  
Snow 0.00 in 0.00 in - ()
Month to date snowfall 0.0  
Since 1 July snowfall 0.0  
Since 1 September snowfall 0.0  
Snow Depth -    
Sea Level Pressure  
Sea Level Pressure 30.25 in    
Wind  
Wind Speed 4 mph (North)    
Max Wind Speed 12 mph    
Max Gust Speed 18 mph    
Visibility 8 miles    
Events      
T = Trace of Precipitation, MM = Missing Value Source: NWS Daily Summary

Daily Weather History Graph

Daily Weather History Graph

Search for Another Location

Airport:

Trip Planner

Search our weather history database for the weather conditions in past years. The results will help you decide how hot, cold, wet, or windy it might be!

Date:

Astronomy

Sep. 16, 2013 Rise Set
Actual Time 7:15 AM EDT 7:41 PM EDT
Civil Twilight 6:47 AM EDT 8:08 PM EDT
Nautical Twilight 6:14 AM EDT 8:41 PM EDT
Astronomical Twilight 5:41 AM EDT 9:15 PM EDT
Moon 5:50 PM EDT (9/16) 3:58 AM EDT (9/16)
Length of Visible Light 13h 21m
Length of Day
12h 25m
Waxing Gibbous, 90% of the Moon is Illuminated
Sep 16
Waxing Gibbous
Sep 19
Full
Sep 26
Last Quarter
Oct 4
New
Oct 11
First Quarter

Hourly Weather History & Observations

Time (EDT) Temp. Dew Point Humidity Pressure Visibility Wind Dir Wind Speed Gust Speed Precip Events Conditions
12:53 AM 57.9 °F 55.0 °F 90% 30.13 in 6.0 mi Calm Calm - N/A   Overcast
1:53 AM 57.0 °F 55.0 °F 93% 30.14 in 5.0 mi WNW 3.5 mph - N/A   Overcast
2:30 AM 55.4 °F 53.6 °F 94% 30.15 in 1.5 mi WNW 3.5 mph - N/A   Partly Cloudy
2:33 AM 53.6 °F 53.6 °F 100% 30.14 in 0.8 mi WNW 3.5 mph - N/A   Scattered Clouds
2:50 AM 55.4 °F 53.6 °F 94% 30.15 in 1.2 mi Calm Calm - N/A   Mostly Cloudy
2:53 AM 55.0 °F 53.1 °F 93% 30.14 in 2.5 mi Calm Calm - N/A   Mostly Cloudy
3:00 AM 55.4 °F 53.6 °F 94% 30.15 in 4.0 mi WNW 3.5 mph - N/A   Overcast
3:53 AM 55.9 °F 54.0 °F 93% 30.16 in 4.0 mi NW 5.8 mph - N/A   Overcast
4:53 AM 55.0 °F 52.0 °F 89% 30.17 in 5.0 mi Calm Calm - N/A   Scattered Clouds
5:53 AM 53.1 °F 50.0 °F 89% 30.19 in 10.0 mi NNW 4.6 mph - N/A   Clear
6:26 AM 53.6 °F 50.0 °F 88% 30.20 in 10.0 mi NNW 8.1 mph - N/A   Partly Cloudy
6:53 AM 53.1 °F 50.0 °F 89% 30.21 in 9.0 mi NNW 4.6 mph - N/A   Clear
7:18 AM 53.6 °F 51.8 °F 94% 30.22 in 9.0 mi NNW 3.5 mph - N/A   Mostly Cloudy
7:53 AM 55.0 °F 52.0 °F 89% 30.23 in 10.0 mi North 3.5 mph - N/A   Mostly Cloudy
8:00 AM 55.4 °F 51.8 °F 88% 30.23 in 9.0 mi Calm Calm - N/A   Scattered Clouds
8:43 AM 55.4 °F 53.6 °F 94% 30.25 in 10.0 mi North 4.6 mph - 0.01 in   Mostly Cloudy
8:51 AM 57.2 °F 53.6 °F 88% 30.25 in 10.0 mi North 8.1 mph - 0.01 in   Mostly Cloudy
8:53 AM 57.0 °F 53.1 °F 87% 30.25 in 10.0 mi North 8.1 mph - 0.01 in   Overcast
9:02 AM 57.2 °F 53.6 °F 88% 30.26 in 10.0 mi North 6.9 mph - N/A   Overcast
9:53 AM 57.9 °F 52.0 °F 81% 30.27 in 10.0 mi North 8.1 mph - N/A   Overcast
10:53 AM 59.0 °F 52.0 °F 78% 30.30 in 10.0 mi North 3.5 mph - N/A   Overcast
11:53 AM 61.0 °F 51.1 °F 70% 30.31 in 10.0 mi North 6.9 mph - N/A   Overcast
12:11 PM 60.8 °F 51.8 °F 72% 30.31 in 10.0 mi NNW 9.2 mph - N/A   Overcast
12:53 PM 63.0 °F 51.1 °F 65% 30.31 in 10.0 mi NE 8.1 mph - N/A   Mostly Cloudy
1:45 PM 62.6 °F 51.8 °F 68% 30.32 in 10.0 mi NNE 8.1 mph - N/A   Overcast
1:53 PM 63.0 °F 51.1 °F 65% 30.32 in 10.0 mi NNE 11.5 mph - N/A   Overcast
2:28 PM 62.6 °F 51.8 °F 68% 30.32 in 10.0 mi North 8.1 mph - N/A   Mostly Cloudy
2:53 PM 63.0 °F 50.0 °F 63% 30.32 in 10.0 mi NNE 9.2 mph 16.1 mph N/A   Mostly Cloudy
3:53 PM 64.0 °F 50.0 °F 60% 30.31 in 10.0 mi NE 11.5 mph 18.4 mph N/A   Mostly Cloudy
4:53 PM 63.0 °F 48.0 °F 58% 30.31 in 10.0 mi NNE 8.1 mph - N/A   Mostly Cloudy
5:53 PM 63.0 °F 48.0 °F 58% 30.32 in 10.0 mi NE 8.1 mph - N/A   Mostly Cloudy
6:53 PM 61.0 °F 45.0 °F 56% 30.32 in 10.0 mi NE 4.6 mph - N/A   Clear
7:53 PM 57.9 °F 46.0 °F 65% 30.32 in 10.0 mi NE 5.8 mph - N/A   Partly Cloudy
8:53 PM 57.0 °F 45.0 °F 64% 30.34 in 10.0 mi ENE 6.9 mph - N/A   Mostly Cloudy
9:53 PM 55.0 °F 45.0 °F 69% 30.36 in 10.0 mi NE 5.8 mph - N/A   Clear
10:53 PM 53.1 °F 45.0 °F 74% 30.37 in 10.0 mi NE 5.8 mph - N/A   Clear
11:53 PM 52.0 °F 45.0 °F 77% 30.37 in 10.0 mi NE 3.5 mph - N/A   Clear